Vorticity
nan nan nan nan nan nan nan nan nan nan nan nan nan nan nan nan nan nan nan nan nan nan nan nan nan nan nan nan nan nan nan nan nan
nan 5 5 10 9 6 9 8 7 7 6 6 7 8 7 7 6 9 9 10 9 7 7 7 9 7 4 4 4 4 4 4 nan
nan 7 5 7 11 8 7 8 8 7 7 6 8 6 8 5 7 8 8 10 8 8 8 6 8 9 6 4 4 5 5 5 nan
nan 6 7 6 9 11 8 8 9 9 8 7 7 7 5 5 8 6 7 9 7 6 6 5 7 8 5 4 5 5 4 4 nan
nan 6 5 5 3 8 9 8 8 10 9 9 7 10 8 5 7 9 9 9 5 5 4 5 4 5 6 6 5 6 4 5 nan
nan 9 10 9 6 5 8 9 8 9 10 10 11 9 7 8 7 10 11 9 5 4 4 5 5 5 7 7 6 6 5 6 nan
nan 8 13 16 13 14 12 13 9 8 11 10 10 7 7 7 7 9 11 9 6 4 3 4 5 6 8 7 6 6 6 4 nan
nan 10 9 9 12 15 15 16 10 6 6 9 8 7 7 7 8 9 12 9 8 7 6 4 3 4 6 7 6 5 7 6 nan
nan 8 7 8 7 7 10 11 11 10 5 3 8 10 8 7 8 10 12 10 10 6 6 6 5 4 6 7 7 7 9 9 nan
nan 7 8 7 8 6 6 8 9 11 12 8 6 5 6 8 8 10 10 6 12 14 7 6 5 4 5 7 8 9 8 8 nan
nan 8 8 7 8 9 9 7 8 9 9 10 12 11 9 9 6 8 7 7 4 10 11 10 8 7 5 5 9 10 7 7 nan
nan 8 8 7 6 8 9 8 8 8 8 8 10 10 12 10 9 8 7 10 6 3 4 6 7 5 6 7 7 7 9 11 nan
nan 7 7 10 10 8 8 8 8 8 10 8 7 7 8 8 12 10 7 8 10 12 7 2 1 3 5 6 7 6 6 11 nan
nan 9 7 9 9 8 9 9 9 9 7 7 8 10 8 10 9 9 10 8 7 10 12 13 9 7 5 4 5 5 2 4 nan
nan 8 9 10 8 7 8 8 10 9 8 11 11 8 9 12 11 9 14 14 13 13 14 15 20 19 8 4 2 1 4 5 nan
nan 9 7 8 8 8 9 8 9 8 11 13 11 14 8 8 14 11 11 13 12 12 15 14 14 21 25 23 18 14 12 8 nan
nan 9 8 9 8 7 6 9 11 8 9 12 10 10 10 5 11 13 7 7 7 6 8 9 12 13 14 14 21 23 18 19 nan
nan 9 9 9 9 8 7 6 8 10 8 10 12 9 8 8 4 6 7 7 9 7 6 6 8 10 8 4 3 14 22 20 nan
nan 9 9 10 9 8 9 9 9 8 8 9 8 11 9 10 7 5 4 6 7 8 8 6 6 9 7 1 2 15 18 16 nan
nan nan nan nan nan nan nan nan nan nan nan nan nan nan nan nan nan nan nan nan nan nan nan nan nan nan nan nan nan nan nan nan nan
CAPE
415 639 987 1203 1327 896 1187 1228 1141 1134 1304 1094 1072 1331 1109 544 235 179 300 255 1082 900 773 952 862 869 1030 770 723 392 211 128 78
39 291 600 1017 1182 888 1163 1169 1023 1358 1372 1173 1191 1200 637 254 162 154 349 501 990 884 645 551 752 910 898 711 442 267 122 17 0
0 67 340 702 811 995 1092 1150 1092 1232 1301 1220 1379 1122 418 193 175 257 445 780 655 647 571 618 880 675 696 491 271 214 37 0 0
0 5 226 413 879 913 1226 1121 1320 1369 1385 1496 1326 1024 494 259 194 328 400 575 525 659 615 467 806 926 724 452 484 390 254 0 62
0 52 138 165 426 708 912 965 1395 1340 1289 1393 1080 722 478 275 253 221 326 687 764 695 511 344 315 671 735 737 715 670 391 21 205
0 0 0 17 109 339 756 847 950 865 571 650 668 640 360 312 260 253 454 1000 779 810 560 288 235 136 351 849 698 725 578 323 312
0 0 133 87 254 449 632 760 539 418 478 325 288 218 364 304 273 308 497 995 700 968 926 667 447 218 726 795 580 453 582 590 376
0 2 4 4 0 222 346 390 304 298 385 327 313 309 296 353 461 374 530 1072 629 431 763 545 396 227 218 557 467 505 410 543 438
1 2 2 2 5 0 1 138 191 243 283 195 314 246 232 269 327 241 241 745 902 449 361 515 462 312 220 298 620 594 506 570 458
0 0 0 0 0 0 0 0 3 80 146 67 158 212 225 139 139 140 58 28 127 375 313 533 604 555 496 285 642 609 384 467 341
0 0 0 0 0 0 0 0 0 2 29 126 174 162 151 138 127 101 66 24 29 104 280 278 363 381 346 357 547 578 373 381 371
0 0 0 0 0 0 0 0 0 0 0 0 84 143 140 145 158 191 204 154 20 73 148 160 311 329 270 291 242 296 367 395 395
0 0 0 0 0 0 0 0 0 0 0 0 0 1 93 112 125 194 204 232 188 104 141 50 137 194 212 315 286 398 303 263 320
0 0 0 0 0 0 0 0 0 0 0 0 0 0 2 30 101 136 287 288 290 185 99 90 126 111 120 299 203 231 61 306 316
0 0 0 0 0 0 0 0 0 0 0 0 0 0 0 0 103 122 191 228 181 143 115 53 32 54 124 173 134 94 44 61 163
0 0 0 0 0 0 0 0 0 0 0 0 0 0 0 0 3 65 1 1 2 1 4 7 9 5 35 125 117 70 34 39 110
0 0 0 0 0 0 0 0 1 2 1 2 0 0 0 0 1 2 1 3 5 4 4 5 10 9 12 9 4 0 1 59 266
0 0 0 0 0 0 0 0 2 4 1 0 2 6 5 0 9 2 1 1 1 3 5 3 4 8 8 7 5 11 3 0 21
0 0 0 0 0 0 0 0 0 0 2 0 0 2 3 7 0 1 1 0 0 3 3 4 5 3 5 3 7 9 8 14 25
0 0 0 0 0 0 0 0 0 0 0 2 0 0 0 0 3 3 2 0 0 0 2 3 4 3 4 5 5 13 15 21 16